Back to catalog

NUSAT-50

NANCY ROMAN

AliveScienceSSO
NORAD 60493·PAYLOAD·🇦🇷 Argentina

Launched Aug 16, 2024 from Vandenberg Space Force Base

Loading…

Next Passes (next 24 hours)

TLE

FreshSource: Space-Track

Epoch: Sep 14, 2026, 11:34 UTC

1 60493U 24149AB  26257.48243741  .00006976  00000-0  23919-3 0  9992
2 60493  97.3732 338.1568 0002112 208.2294 151.8833 15.30492643115780

Track NUSAT-50 in real time with AllMySat

Download on the App Store